Regional Weather Roundup
Issued by NWS Cleveland, OH

Home | Current Version | Previous Version | Graphics & Text | Print | Product List | Glossary On
Versions: 1 2 3 4 5 6 7 8 9 10 11 12 13 14 15 16 17 18 19 20 21 22 23 24 25 26 27 28 29 30 31 32 33 34 35 36 37 38 39 40 41 42 43 44 45 46 47 48 49 50
000
ASUS41 KCLE 241410
RWRCLE
OHIO REGIONAL WEATHER ROUNDUP
NATIONAL WEATHER SERVICE CLEVELAND, OH
1000 AM EDT FRI OCT 24 2014

NOTE: "FAIR" INDICATES FEW OR NO CLOUDS BELOW 12,000 FEET WITH NO
SIGNIFICANT WEATHER AND/OR OBSTRUCTIONS TO VISIBILITY.

OHZ001>008-015>018-024>027-034-035-043-044-241500-
   NORTHWEST OHIO

CITY           SKY/WX    TMP DP  RH WIND       PRES   REMARKS
DEFIANCE       SUNNY     47  42  83 SW5       30.10S HAZE
FINDLAY        SUNNY     48  43  82 S3        30.10S
TOLEDO EXPRESS SUNNY     46  41  82 CALM      30.09F HAZE
TOLEDO EXEC    SUNNY     46  40  79 SW6       30.11S
LIMA           SUNNY     48  41  76 S5        30.11S
$$

OHZ009>014-019>023-028>033-038-089-241500-
   NORTHEAST OHIO

CITY           SKY/WX    TMP DP  RH WIND       PRES   REMARKS
CLE-HOPKINS    PTSUNNY   47  42  83 SW6       30.12F
CLE-LAKEFRONT  PTSUNNY   50  41  71 S5        30.09F
CUY CO. ARPT   PTSUNNY   50  45  81 W8        30.10S
LORAIN-ELYRIA  MOSUNNY   45  41  86 W6        30.11S
ASHTABULA      PTSUNNY   49  46  90 SW5       30.09F
AKRON-CANTON   MOSUNNY   47  41  80 SW3       30.10S
WOOSTER        PTSUNNY   48  43  82 CALM      30.11F
MANSFIELD      SUNNY     47  43  86 SW5       30.11S
YOUNGSTOWN     CLOUDY    43  41  93 CALM      30.09S FOG
$$

OHZ042-051>053-060>062-070>072-077>081-241500-
  SOUTHWEST OHIO

CITY           SKY/WX    TMP DP  RH WIND       PRES   REMARKS
CINC-COVINGTON MOSUNNY   50  45  83 CALM      30.13S
CINC-LUNKEN    PTSUNNY   46  45  96 CALM      30.15F FOG
HAMILTON       MOSUNNY   44  43  96 CALM      30.15S
DAYTON         MOSUNNY   50  43  77 SW6       30.12F
WRIGHT-PAT AFB SUNNY     46  42  88 S1        30.13S
DAYTON GENERAL MOSUNNY   48  44  86 S3        30.12S
WILMINGTON     MOSUNNY   52  43  71 SW6       30.12F
$$

OHZ036-037-039>041-045>050-054>059-063>069-073>076-082>088-241500-
  CENTRAL AND SOUTHEAST OHIO

CITY           SKY/WX    TMP DP  RH WIND       PRES   REMARKS
COLUMBUS       MOSUNNY   48  42  80 S5        30.12S
OSU AIRPORT    MOSUNNY   46  42  86 SW3       30.12S FOG
BOLTON FIELD   SUNNY     46  43  87 CALM      30.13S FOG
RICKENBACK AFB MOSUNNY   45  42  88 S6        30.13S FOG
NEWARK         MOSUNNY   43  40  89 CALM      30.12S
MARION         SUNNY     47  42  83 S5        30.12R HAZE
LANCASTER      MOSUNNY   46  42  86 CALM      30.13S
ZANESVILLE     MOSUNNY   42  40  92 CALM      30.13S
NEW PHILLY     FOG       40  39  97 CALM      30.13S VSB<1/4
$$



USA.gov is the U.S. government's official web portal to all federal, state and local government web resources and services.